Weather History for KBED - June, 2013

Change the Weather History Date:

Friday, June 14, 2013

  Actual Average Record
Temperature  
Mean Temperature 62 °F -  
Max Temperature 75 °F 77 °F 91 °F (1957)
Min Temperature 51 °F 53 °F 42 °F (1970)
Degree Days  
Heating Degree Days 3    
Growing Degree Days 12 (Base 50)    
Moisture  
Dew Point 53 °F    
Average Humidity 78    
Maximum Humidity 100    
Minimum Humidity 48    
Precipitation  
Precipitation 0.97 in - - ()
Sea Level Pressure  
Sea Level Pressure 29.72 in    
Wind  
Wind Speed 8 mph (North)    
Max Wind Speed 13 mph    
Max Gust Speed 21 mph    
Visibility 8 miles    
Events Rain    
Averages and records for this station are not official NWS values.
T = Trace of Precipitation, MM = Missing Value Source: NWS Daily Summary

Daily Weather History Graph

Daily Weather History Graph

Search for Another Location

Airport or City:

Trip Planner

Search our weather history database for the weather conditions in past years. The results will help you decide how hot, cold, wet, or windy it might be!

Date:

Astronomy

Jun. 14, 2013 Rise Set
Actual Time 5:07 AM EDT 8:23 PM EDT
Civil Twilight 4:32 AM EDT 8:58 PM EDT
Nautical Twilight 3:47 AM EDT 9:43 PM EDT
Astronomical Twilight 2:52 AM EDT 10:38 PM EDT
Moon 10:45 AM EDT (6/14) 11:51 PM EDT (6/14)
Length of Visible Light 16h 26m
Length of Day
15h 16m
Waxing Crescent, 30% of the Moon is Illuminated
Jun 14
Waxing Crescent
Jun 16
First Quarter
Jun 23
Full
Jun 30
Last Quarter
Jul 8
New

Hourly Weather History & Observations

Time (EDT) Temp. Dew Point Humidity Pressure Visibility Wind Dir Wind Speed Gust Speed Precip Events Conditions
12:56 AM 52.0 °F - N/A% 29.70 in 6.0 mi NNE 10.4 mph - 0.08 in Rain Light Rain
1:10 AM 51.8 °F - N/A% 29.66 in 5.0 mi NNE 6.9 mph - 0.03 in Rain Rain
1:56 AM 52.0 °F - N/A% 29.69 in 5.0 mi NE 12.7 mph 20.7 mph 0.12 in Rain Rain
2:04 AM 51.8 °F - N/A% 29.65 in 6.0 mi NE 10.4 mph - 0.02 in Rain Rain
2:53 AM 51.8 °F - N/A% 29.64 in 6.0 mi NNE 6.9 mph - 0.12 in Rain Rain
2:56 AM 51.1 °F - N/A% 29.68 in 6.0 mi NNE 8.1 mph - 0.13 in Rain Rain
3:56 AM 52.0 °F - N/A% 29.69 in 8.0 mi North 6.9 mph - 0.08 in Rain Light Rain
4:56 AM 53.1 °F - N/A% 29.70 in 6.0 mi NNE 9.2 mph - 0.11 in Rain Rain
5:30 AM 51.8 °F - N/A% 29.67 in 5.0 mi NNE 10.4 mph - 0.10 in Rain Rain
5:56 AM 52.0 °F - N/A% 29.72 in 8.0 mi NNE 9.2 mph - 0.15 in Rain Light Rain
6:10 AM 51.8 °F - N/A% 29.68 in 5.0 mi North 6.9 mph - 0.03 in Rain Rain
6:36 AM 51.8 °F - N/A% 29.68 in 8.0 mi NNE 5.8 mph - 0.08 in Rain Light Rain
6:49 AM 51.8 °F - N/A% 29.69 in 3.0 mi NNE 8.1 mph - 0.09 in Rain Rain
6:56 AM 52.0 °F - N/A% 29.74 in 3.0 mi NNE 8.1 mph - 0.11 in Rain Rain
7:03 AM 51.8 °F - N/A% 29.69 in 6.0 mi NNE 6.9 mph - 0.01 in Rain Rain
7:10 AM 51.8 °F 51.8 °F 100% 29.70 in 6.0 mi NNE 6.9 mph - 0.03 in Rain Rain
7:18 AM 51.8 °F 51.8 °F 100% 29.70 in 5.0 mi North 6.9 mph - 0.06 in Rain Rain
7:46 AM 51.8 °F 51.8 °F 100% 29.71 in 7.0 mi NNE 6.9 mph - 0.11 in Rain Rain
7:56 AM 52.0 °F 52.0 °F 100% 29.75 in 6.0 mi North 5.8 mph - 0.13 in Rain Rain
8:03 AM 51.8 °F 51.8 °F 100% 29.72 in 6.0 mi NE 5.8 mph - 0.01 in Rain Rain
8:56 AM 53.1 °F 52.0 °F 96% 29.76 in 10.0 mi NE 5.8 mph - 0.05 in Rain Light Rain
9:06 AM 53.6 °F 51.8 °F 94% 29.71 in 10.0 mi NE 6.9 mph - 0.00 in Rain Light Rain
9:56 AM 55.0 °F 53.1 °F 93% 29.75 in 10.0 mi NE 8.1 mph - 0.01 in   Scattered Clouds
10:56 AM 59.0 °F 53.1 °F 81% 29.75 in 10.0 mi North 5.8 mph - N/A   Mostly Cloudy
11:45 AM 60.8 °F 53.6 °F 77% 29.73 in 10.0 mi North 4.6 mph - N/A   Mostly Cloudy
11:56 AM 61.0 °F 53.1 °F 75% 29.77 in 10.0 mi Variable 3.5 mph - N/A   Mostly Cloudy
12:18 PM 62.6 °F 53.6 °F 72% 29.73 in 10.0 mi NNW 4.6 mph - N/A   Mostly Cloudy
12:56 PM 62.1 °F 52.0 °F 70% 29.76 in 10.0 mi WNW 4.6 mph - N/A   Mostly Cloudy
1:56 PM 64.9 °F 54.0 °F 68% 29.76 in 10.0 mi Variable 5.8 mph - N/A   Scattered Clouds
2:31 PM 66.2 °F 53.6 °F 64% 29.71 in 10.0 mi WNW 9.2 mph - N/A   Scattered Clouds
2:56 PM 70.0 °F 55.0 °F 59% 29.74 in 10.0 mi NNW 8.1 mph - N/A   Partly Cloudy
3:56 PM 70.0 °F 54.0 °F 57% 29.73 in 10.0 mi WNW 9.2 mph - N/A   Partly Cloudy
4:56 PM 73.9 °F 53.1 °F 48% 29.72 in 10.0 mi NW 9.2 mph - N/A   Clear
5:56 PM 73.0 °F 52.0 °F 48% 29.73 in 10.0 mi Calm Calm - N/A   Overcast
6:56 PM 72.0 °F 53.1 °F 51% 29.74 in 10.0 mi Calm Calm - N/A   Clear
7:56 PM 64.9 °F 55.0 °F 70% 29.74 in 10.0 mi Calm Calm - N/A   Clear
8:56 PM 63.0 °F 55.0 °F 75% 29.76 in 10.0 mi Calm Calm - N/A   Partly Cloudy
9:56 PM 60.1 °F 54.0 °F 80% 29.77 in 10.0 mi West 3.5 mph - N/A   Mostly Cloudy
10:56 PM 57.0 °F 54.0 °F 89% 29.78 in 10.0 mi West 3.5 mph - N/A   Clear
11:56 PM 59.0 °F 53.1 °F 81% 29.80 in 10.0 mi WNW 5.8 mph - N/A   Clear